Lancaster, CA

8:12 AM PDT on July 24, 2017 (GMT -0700)
Gen Fox

Weather History for KWJF - December, 2012

Change the Weather History Date:

Friday, December 28, 2012

  Actual Average Record
Temperature  
Mean Temperature 33 °F 43 °F  
Max Temperature 49 °F 57 °F 74 °F (2013)
Min Temperature 16 °F 30 °F 12 °F (1954)
Degree Days  
Heating Degree Days 32    
Month to date heating degree days 543  
Since 1 July heating degree days 975  
Cooling Degree Days 0    
Month to date cooling degree days 0  
Year to date cooling degree days 2282  
Moisture  
Dew Point 17 °F    
Average Humidity 56    
Maximum Humidity 80    
Minimum Humidity 31    
Precipitation  
Precipitation 0.00 in 0.05 in 2.46 in (2004)
Month to date precipitation 0.08 1.00  
Year to date precipitation 1.83 7.23  
Since 1 July precipitation 0.13  
Snow  
Snow 0.00 in - 1.50 in (1971)
Month to date snowfall 0.0  
Since 1 July snowfall 0.0  
Snow Depth 0.00 in    
Sea Level Pressure  
Sea Level Pressure 30.20 in    
Wind  
Wind Speed 2 mph (NW)    
Max Wind Speed 9 mph    
Max Gust Speed 10 mph    
Visibility 10 miles    
Events      
T = Trace of Precipitation, MM = Missing Value Source: NWS Daily Summary

Daily Weather History Graph

Daily Weather History Graph

Search for Another Location

Airport or City:

Trip Planner

Search our weather history database for the weather conditions in past years. The results will help you decide how hot, cold, wet, or windy it might be!

Date:

Astronomy

Dec. 28, 2012 Rise Set
Actual Time 6:59 AM PST 4:50 PM PST
Civil Twilight 6:31 AM PST 5:18 PM PST
Nautical Twilight 5:59 AM PST 5:49 PM PST
Astronomical Twilight 5:29 AM PST 6:20 PM PST
Moon 5:28 PM PST (12/28) 6:59 AM PST (12/28)
Length of Visible Light 10h 46m
Length of Day
9h 50m
Full, 100% of the Moon is Illuminated
Dec 28
Full
Jan 4
Last Quarter
Jan 11
New
Jan 18
First Quarter
Jan 26
Full

Hourly Weather History & Observations

Time (PST) Temp. Windchill Dew Point Humidity Pressure Visibility Wind Dir Wind Speed Gust Speed Precip Events Conditions
12:56 AM 21.9 °F - 16.0 °F 78% 30.20 in 10.0 mi Calm Calm - N/A   Clear
1:56 AM 28.0 °F 22.8 °F 21.0 °F 75% 30.19 in 10.0 mi WSW 4.6 mph - N/A   Clear
2:56 AM 21.0 °F - 15.1 °F 78% 30.20 in 10.0 mi Calm Calm - N/A   Clear
3:56 AM 23.0 °F - 16.0 °F 74% 30.20 in 10.0 mi Calm Calm - N/A   Clear
4:56 AM 17.1 °F 11.7 °F 12.0 °F 81% 30.22 in 10.0 mi North 3.5 mph - N/A   Clear
5:56 AM 17.1 °F 8.7 °F 12.0 °F 81% 30.25 in 10.0 mi NW 5.8 mph - N/A   Clear
6:56 AM 17.1 °F 10.0 °F 12.0 °F 81% 30.26 in 10.0 mi WNW 4.6 mph - N/A   Clear
7:56 AM 21.0 °F - 15.1 °F 78% 30.27 in 10.0 mi Calm Calm - N/A   Clear
8:56 AM 30.0 °F - 21.0 °F 69% 30.28 in 10.0 mi Calm Calm - N/A   Clear
9:56 AM 37.9 °F 35.5 °F 21.9 °F 53% 30.27 in 10.0 mi East 3.5 mph - N/A   Clear
10:56 AM 42.1 °F - 21.0 °F 43% 30.25 in 10.0 mi Calm Calm - N/A   Clear
11:56 AM 46.0 °F 41.9 °F 18.0 °F 33% 30.21 in 10.0 mi NE 8.1 mph - N/A   Clear
12:56 PM 48.0 °F - 19.0 °F 32% 30.19 in 10.0 mi Variable 3.5 mph - N/A   Clear
1:56 PM 48.0 °F - 19.9 °F 33% 30.16 in 10.0 mi Variable 3.5 mph - N/A   Clear
2:56 PM 48.0 °F - 19.9 °F 33% 30.16 in 10.0 mi Calm Calm - N/A   Clear
3:56 PM 48.0 °F - 19.0 °F 32% 30.15 in 10.0 mi Calm Calm - N/A   Clear
4:56 PM 46.9 °F - 18.0 °F 32% 30.16 in 10.0 mi Calm Calm - N/A   Clear
5:56 PM 41.0 °F - 17.1 °F 38% 30.17 in 10.0 mi Calm Calm - N/A   Clear
6:56 PM 36.0 °F - 17.1 °F 46% 30.18 in 10.0 mi Calm Calm - N/A   Clear
7:56 PM 34.0 °F 28.0 °F 16.0 °F 48% 30.18 in 10.0 mi West 6.9 mph - N/A   Clear
8:56 PM 34.0 °F 29.8 °F 17.1 °F 50% 30.17 in 10.0 mi WNW 4.6 mph - N/A   Overcast
9:56 PM 35.1 °F 32.2 °F 18.0 °F 50% 30.15 in 10.0 mi NW 3.5 mph - N/A   Mostly Cloudy
10:56 PM 35.1 °F 32.2 °F 18.0 °F 50% 30.14 in 10.0 mi West 3.5 mph - N/A   Overcast
11:56 PM 32.0 °F 28.7 °F 17.1 °F 54% 30.12 in 10.0 mi NNW 3.5 mph - N/A   Scattered Clouds